Wind_Speed
22 22 21 20 19 18 17 16 13 12 11 10 9 9 8 6 5 4 3 3 3 5 8 8 7 7 6 7 9 9 9 8 9 9 9 10 10 9 10 12 14 15
22 21 20 19 19 18 17 15 13 11 10 10 9 8 7 7 6 5 4 3 3 4 6 6 6 5 5 6 7 8 9 8 9 9 9 8 8 7 8 10 12 14
22 21 20 18 18 18 18 16 13 12 11 9 8 7 7 8 7 6 4 3 2 2 3 4 4 3 3 5 6 6 8 8 8 8 7 7 7 6 7 9 11 12
22 21 19 17 17 18 18 17 15 13 11 9 8 7 8 8 8 7 4 2 2 2 2 4 4 4 3 4 5 6 7 7 6 6 6 6 6 6 8 9 10 11
22 20 18 17 17 18 18 17 15 13 11 9 8 7 8 8 8 6 4 2 3 3 3 4 5 4 3 4 5 6 6 6 5 6 6 7 7 7 9 10 10 11
20 19 17 17 17 17 17 16 15 13 12 10 9 8 8 8 7 6 3 2 4 5 4 4 4 3 3 3 4 4 5 5 5 5 6 7 8 9 9 9 10 10
20 18 17 16 16 15 15 15 14 13 12 10 9 8 8 8 7 5 4 4 6 6 5 5 4 4 4 4 4 4 4 5 5 6 7 8 9 10 9 9 8 7
20 19 18 17 16 15 14 14 13 13 12 10 9 8 8 8 7 6 5 5 6 6 6 5 4 4 5 5 5 5 4 5 6 8 9 10 10 9 9 8 8 6
21 19 18 17 16 14 13 12 13 13 12 10 8 8 8 8 7 6 5 5 5 6 6 5 4 4 4 5 5 5 4 4 6 8 8 9 9 8 7 8 8 7
20 19 17 16 15 13 12 12 13 13 11 9 7 7 8 8 7 6 5 5 5 6 5 5 4 4 4 5 6 5 4 4 5 7 8 8 8 7 7 8 8 9
18 18 15 14 13 12 11 12 12 11 10 8 7 7 7 6 6 6 5 5 5 5 5 4 3 3 3 4 6 5 4 4 6 7 8 7 6 6 7 9 9 10
15 15 14 13 13 12 12 12 12 10 9 8 7 7 7 6 5 5 5 6 6 5 5 4 2 3 3 4 5 6 5 5 7 8 7 7 6 6 8 9 10 10
14 12 11 12 13 12 11 11 11 9 8 8 8 8 7 5 4 4 4 5 6 5 5 4 2 2 3 3 5 5 5 6 8 8 8 7 7 7 7 8 8 8
12 9 8 10 10 9 9 9 10 9 8 8 9 9 7 5 4 4 3 4 4 4 4 4 4 2 2 3 3 3 3 5 7 9 8 7 7 7 7 7 7 7
12 10 10 9 8 8 9 10 10 9 8 8 9 9 7 5 4 4 5 5 4 4 4 5 5 3 2 2 2 2 2 3 5 8 8 7 7 8 8 8 8 8
13 11 10 8 6 7 9 9 9 8 8 8 8 8 7 6 4 4 4 5 5 5 5 5 5 4 3 3 4 5 5 5 6 7 9 9 8 8 9 9 9 10
14 12 10 8 6 6 7 6 6 7 7 7 7 7 7 6 5 3 3 4 5 6 7 7 7 6 5 5 5 6 7 7 8 8 10 10 10 10 10 10 11 12
18 17 15 14 13 12 11 10 9 8 7 7 6 6 5 4 3 2 3 3 2 3 5 7 7 8 9 9 8 8 8 9 9 10 11 12 13 13 13 14 15 15
22 22 22 20 19 18 16 15 14 13 11 10 10 9 8 7 7 6 6 5 3 2 1 0 2 5 7 9 10 10 11 11 12 13 13 14 14 15 16 17 19 20
27 27 27 25 23 21 19 19 18 17 16 14 13 11 10 11 10 9 8 7 6 6 5 4 3 2 3 5 7 9 10 12 13 14 15 17 18 18 19 20 21 22
28 28 28 27 26 24 23 22 20 19 18 16 14 14 14 14 13 12 11 10 9 8 7 6 5 3 3 3 5 6 7 8 10 11 13 15 17 19 21 23 23 24
24 24 24 22 22 23 24 24 22 20 18 16 14 14 14 14 14 14 14 12 11 10 8 8 7 6 5 5 6 6 7 8 9 11 12 13 14 15 17 19 21 23
23 22 21 18 17 18 20 20 20 20 19 17 15 13 13 14 14 14 14 13 12 11 10 10 10 8 7 7 7 7 8 9 10 12 13 14 16 16 16 17 17 18
22 21 20 18 16 15 15 13 12 13 15 16 16 15 14 13 13 12 12 12 12 11 11 10 10 10 10 9 9 9 9 9 10 12 13 15 16 17 18 17 17 17
20 19 18 18 16 15 14 11 9 8 9 11 13 14 13 13 12 11 11 11 11 10 10 10 10 10 10 10 11 11 11 11 12 13 13 14 16 18 19 19 19 18
19 18 17 16 14 13 12 12 10 9 8 8 9 11 11 12 11 11 11 10 10 10 10 10 11 10 10 10 11 12 12 13 13 14 15 16 17 18 20 21 21 20
Wind_Direction
185 185 185 186 185 182 179 178 177 177 176 173 175 177 176 177 172 157 152 154 140 152 163 164 167 175 184 197 202 201 201 205 204 202 200 198 199 202 202 202 204 205
188 190 189 189 190 187 184 180 179 178 173 169 172 176 177 173 164 154 150 151 143 148 163 171 174 181 194 204 204 203 203 205 204 202 202 203 204 204 204 201 200 204
191 192 192 192 191 189 185 181 181 180 174 171 171 169 170 167 164 160 157 165 175 179 192 195 189 185 195 199 193 193 197 198 202 204 203 203 204 204 202 201 198 200
192 192 193 192 188 184 183 182 183 184 180 175 169 167 168 168 169 169 169 185 189 180 188 185 181 178 179 184 181 182 189 193 199 204 198 192 193 194 189 188 190 190
190 192 192 189 183 181 182 183 185 186 185 180 172 171 175 176 178 178 183 202 180 162 154 160 165 172 175 177 181 183 183 181 185 188 187 185 184 183 179 177 181 185
190 193 192 188 184 181 182 185 187 188 186 183 176 175 180 183 185 185 185 180 164 157 142 137 146 152 153 158 162 163 163 165 170 175 181 181 175 171 171 172 178 188
192 193 190 188 186 184 185 185 187 187 185 181 175 176 184 186 185 183 171 156 156 158 147 130 128 128 124 131 142 146 149 151 157 162 163 162 163 163 165 169 174 185
192 190 187 188 188 188 186 183 184 184 182 179 176 178 184 185 183 177 162 152 153 158 159 148 139 141 140 144 153 157 150 141 152 161 156 151 155 159 164 169 170 174
189 188 187 190 189 186 181 177 179 180 178 177 176 176 178 177 179 178 170 164 159 158 164 164 164 170 172 174 177 181 175 160 162 169 164 157 155 155 162 172 171 171
187 187 188 188 184 178 175 174 175 176 175 175 174 170 171 173 177 181 179 173 171 171 172 171 172 175 182 191 193 192 194 189 181 182 180 175 171 168 174 182 182 176
180 181 183 185 180 171 169 171 173 175 174 172 170 167 170 173 171 173 173 168 170 175 173 171 179 185 189 198 197 190 192 198 193 189 188 188 193 196 195 193 191 183
169 174 179 182 178 169 168 172 174 178 177 172 168 166 167 168 160 158 165 170 174 174 172 175 191 205 206 208 206 201 201 204 198 191 193 200 204 205 203 199 195 189
159 163 172 177 174 168 170 174 175 179 181 175 171 169 169 172 169 162 161 170 181 185 188 197 205 210 216 216 215 215 217 214 206 202 203 202 199 195 194 195 198 200
155 157 166 169 167 162 168 182 185 186 188 186 180 179 184 190 192 196 195 190 193 196 200 204 203 209 223 217 216 221 225 221 214 214 214 210 209 208 203 202 206 210
164 172 173 171 170 169 178 189 191 191 194 196 194 196 205 212 213 231 238 228 219 211 205 204 204 210 220 221 241 260 268 252 227 224 228 229 231 234 231 230 233 237
159 163 168 174 181 177 179 184 186 189 190 192 199 206 213 222 236 250 243 232 230 224 213 209 211 222 240 248 255 262 269 268 252 240 239 241 243 243 243 245 248 254
131 132 139 144 142 145 150 154 169 181 184 187 196 202 209 222 238 241 213 214 231 230 220 218 223 233 244 252 257 260 263 266 265 258 252 251 252 250 251 254 257 262
111 111 112 113 112 113 114 113 124 135 138 145 150 151 164 177 169 147 150 173 214 236 233 234 244 253 255 257 260 262 264 265 267 267 264 261 260 260 261 263 264 266
99 97 93 94 96 98 101 102 103 102 100 101 103 110 121 123 117 114 112 118 127 124 119 251 279 276 270 267 266 265 265 265 265 266 266 265 265 265 267 268 270 271
89 87 82 80 83 88 92 91 86 82 81 83 88 93 95 96 96 97 95 93 93 93 89 80 61 345 292 278 275 271 269 269 269 270 270 268 269 269 269 271 272 273
79 79 75 72 72 75 77 76 72 69 70 71 75 77 75 77 80 80 80 79 77 80 83 74 55 19 328 298 288 284 280 278 276 276 276 275 275 275 274 274 274 273
67 70 67 63 62 61 61 60 56 54 53 52 59 66 65 65 67 66 66 67 68 72 71 61 47 25 357 330 310 298 290 285 281 278 278 277 278 281 283 283 282 281
61 63 60 56 55 52 48 49 47 44 40 36 39 47 51 52 52 52 53 52 53 55 53 48 42 28 12 354 336 321 307 299 293 286 281 277 274 275 279 285 288 291
59 60 58 55 55 50 43 39 35 32 30 28 27 30 36 40 41 41 41 39 38 37 33 32 33 28 16 5 355 344 332 323 313 303 294 288 281 274 273 276 278 281
59 60 60 59 60 59 53 48 39 24 13 10 15 20 24 27 29 31 30 28 25 21 13 9 13 13 9 4 358 350 343 336 329 322 313 305 298 289 283 280 276 274
62 62 63 64 65 64 59 56 49 36 18 1 359 0 2 9 17 24 25 23 17 9 1 356 354 352 353 353 349 343 339 334 331 330 325 319 313 307 300 293 288 283
Height
815 816 817 819 820 822 823 824 826 826 827 828 829 830 830 831 831 832 832 833 834 835 836 837 838 839 840 840 841 842 843 844 844 845 845 846 847 848 848 849 850 851
815 817 818 819 820 822 823 825 826 826 827 828 829 830 830 831 832 832 833 834 834 835 836 837 838 839 839 840 841 842 843 844 844 845 846 846 847 848 848 849 850 851
815 816 818 819 820 821 823 824 825 826 827 828 829 830 830 831 832 833 833 834 835 835 836 837 837 838 839 840 841 842 843 844 844 845 846 846 847 848 848 849 850 851
814 816 817 818 819 821 822 823 825 826 827 827 828 829 830 831 832 833 833 834 834 835 836 836 837 838 839 840 840 842 842 843 844 844 845 846 846 847 848 849 850 851
815 816 818 819 820 821 823 824 825 826 827 827 828 829 830 831 832 833 833 834 834 835 835 836 837 838 839 839 840 842 842 843 844 844 845 845 846 847 847 848 849 851
815 817 818 820 821 822 823 824 825 826 826 827 828 829 830 831 832 832 833 833 834 835 835 836 837 838 838 839 840 841 842 843 844 844 845 845 846 847 847 848 849 850
815 817 818 820 821 822 823 824 825 826 827 828 828 829 830 831 831 832 832 833 833 834 835 836 837 838 839 840 840 842 843 843 844 845 845 846 846 847 848 849 850 850
814 816 817 819 821 822 823 823 825 826 827 828 828 829 830 831 832 832 832 833 833 834 836 836 838 839 839 841 841 842 843 844 845 846 846 847 847 848 849 849 850 851
814 815 816 818 819 821 822 823 824 826 827 828 829 829 830 831 832 832 833 834 834 835 836 837 838 839 840 841 842 843 844 845 846 847 847 848 848 849 850 850 851 851
813 815 816 818 819 820 821 823 824 826 827 829 829 830 831 831 832 833 833 834 835 836 837 838 839 840 841 842 843 844 845 846 847 848 848 849 849 850 851 851 852 852
814 816 817 819 820 820 821 823 825 826 828 829 830 830 831 832 832 833 834 834 835 836 837 838 839 840 841 842 843 844 845 846 847 848 849 849 850 851 851 852 852 853
815 817 818 819 821 821 822 823 825 827 828 829 830 831 832 832 833 833 834 834 835 836 837 838 839 840 841 842 843 844 845 846 847 848 849 850 850 851 852 852 853 854
815 817 818 820 821 822 823 824 825 827 828 829 830 831 832 833 833 833 834 834 835 836 837 838 839 840 841 842 843 844 845 846 847 848 849 850 850 851 852 853 853 854
814 817 819 821 822 823 825 826 827 827 828 829 830 831 832 832 833 833 834 834 835 835 836 837 838 840 841 842 843 844 845 845 846 847 848 849 850 851 852 853 854 855
814 817 820 822 822 823 825 827 827 828 828 830 830 831 832 832 833 833 833 834 834 835 836 837 838 839 840 841 842 843 844 845 845 846 847 849 850 850 851 852 853 854
814 817 819 821 822 823 825 826 827 828 829 830 830 831 832 832 833 833 833 834 834 834 835 836 837 839 840 841 842 842 843 844 844 845 846 847 848 849 850 851 852 854
814 817 818 820 822 823 824 825 826 827 829 830 830 831 831 832 832 832 832 833 834 834 835 836 837 838 839 840 841 842 842 843 843 844 845 846 847 848 849 850 851 852
815 817 818 820 822 823 824 825 826 827 829 830 830 831 832 832 832 832 832 832 833 834 835 836 837 838 839 840 840 841 842 842 842 843 844 845 846 847 848 848 849 850
817 818 820 821 822 823 824 826 827 828 830 830 831 832 833 832 833 832 832 833 833 834 835 836 836 837 837 838 839 840 840 841 841 842 843 844 844 845 846 846 847 848
819 820 822 823 824 825 825 827 828 830 831 832 833 834 834 833 833 833 833 833 834 834 835 836 836 836 837 838 838 838 839 839 840 840 841 842 843 843 844 844 845 846
821 822 824 825 827 827 827 828 830 832 833 834 834 835 835 835 834 833 833 833 834 835 835 836 836 837 837 837 838 838 838 838 839 839 839 840 841 842 842 843 843 844
825 824 825 827 829 829 829 829 831 833 835 836 836 836 836 836 835 834 834 834 835 836 836 836 837 837 837 837 837 837 837 837 837 838 838 838 839 840 840 841 841 842
828 826 827 829 830 830 831 832 833 834 836 837 837 836 836 835 835 835 834 835 835 836 837 837 837 837 837 837 837 837 836 836 836 836 837 837 837 837 838 838 839 840
830 829 830 831 831 832 833 834 834 836 837 838 838 837 836 836 835 834 834 835 836 837 838 839 839 839 838 838 837 837 837 836 836 836 836 836 835 835 836 836 836 837
831 832 833 834 834 835 836 836 836 837 837 838 839 839 838 836 835 834 834 835 836 837 838 839 839 840 839 839 838 837 837 836 836 835 835 835 834 834 833 834 834 834
833 834 835 836 837 838 838 837 837 837 837 837 839 840 839 837 836 835 835 836 837 837 838 838 839 839 839 839 838 837 836 836 835 835 834 833 833 832 832 831 832 832